Weather History for KFTG - July, 2013

Change the Weather History Date:

Sunday, July 21, 2013

  Actual Average (KDEN) Record (KDEN)
Temperature  
Mean Temperature 72 °F 75 °F  
Max Temperature 84 °F 90 °F 104 °F (2005)
Min Temperature 60 °F 60 °F 51 °F (1961)
Degree Days  
Heating Degree Days 0 0  
Month to date heating degree days 1  
Since 1 June heating degree days 63  
Since 1 July heating degree days 1  
Cooling Degree Days 7 10  
Month to date cooling degree days 189  
Year to date cooling degree days 344  
Since 1 June cooling degree days 322  
Growing Degree Days 22 (Base 50)    
Moisture  
Dew Point 51 °F    
Average Humidity 56    
Maximum Humidity 77    
Minimum Humidity 31    
Precipitation  
Precipitation 0.00 in 0.07 in 1.36 in (1874)
Month to date precipitation 1.36  
Year to date precipitation 8.87  
Snow  
Snow 0.00 in - - ()
Month to date snowfall  
Since 1 June snowfall  
Since 1 July snowfall  
Snow Depth -    
Sea Level Pressure  
Sea Level Pressure 30.01 in    
Wind  
Wind Speed 11 mph (SSW)    
Max Wind Speed 18 mph    
Max Gust Speed 24 mph    
Visibility 10 miles    
Events      
T = Trace of Precipitation, MM = Missing Value Source: NWS Daily Summary

Daily Weather History Graph

Daily Weather History Graph

Search for Another Location

Airport or City:

Trip Planner

Search our weather history database for the weather conditions in past years. The results will help you decide how hot, cold, wet, or windy it might be!

Date:

Astronomy

Jul. 21, 2013 Rise Set
Actual Time 5:47 AM MDT 8:21 PM MDT
Civil Twilight 5:16 AM MDT 8:52 PM MDT
Nautical Twilight 4:37 AM MDT 9:30 PM MDT
Astronomical Twilight 3:54 AM MDT 10:14 PM MDT
Moon 7:21 PM MDT (7/21) 4:36 AM MDT (7/21)
Length of Visible Light 15h 35m
Length of Day
14h 33m
Waxing Gibbous, 98% of the Moon is Illuminated
Jul 21
Waxing Gibbous
Jul 22
Full
Jul 29
Last Quarter
Aug 6
New
Aug 14
First Quarter

Hourly Weather History & Observations

Time (MDT) Temp. Heat Index Dew Point Humidity Pressure Visibility Wind Dir Wind Speed Gust Speed Precip Events Conditions
12:16 AM 66.2 °F - 55.4 °F 68% 30.06 in 10.0 mi SW 11.5 mph 16.1 mph N/A   Clear
12:36 AM 66.2 °F - 55.4 °F 68% 30.04 in 10.0 mi SW 8.1 mph - N/A   Clear
12:56 AM 66.2 °F - 55.4 °F 68% 30.06 in 10.0 mi East 10.4 mph - N/A   Clear
1:16 AM 62.6 °F - 53.6 °F 72% 30.06 in 10.0 mi East 6.9 mph - N/A   Clear
1:36 AM 64.4 °F - 53.6 °F 68% 30.05 in 10.0 mi SSE 9.2 mph - N/A   Clear
1:56 AM 64.4 °F - 53.6 °F 68% 30.05 in 10.0 mi SSE 9.2 mph - N/A   Clear
2:16 AM 64.4 °F - 53.6 °F 68% 30.04 in 10.0 mi SE 13.8 mph - N/A   Clear
2:36 AM 62.6 °F - 55.4 °F 77% 30.03 in 10.0 mi SSE 15.0 mph - N/A   Clear
2:56 AM 64.4 °F - 53.6 °F 68% 30.01 in 10.0 mi South 15.0 mph 20.7 mph N/A   Clear
3:16 AM 68.0 °F - 53.6 °F 60% 30.01 in 10.0 mi South 15.0 mph - N/A   Clear
3:35 AM 66.2 °F - 53.6 °F 64% 30.00 in 10.0 mi South 13.8 mph - N/A   Clear
3:56 AM 68.0 °F - 51.8 °F 56% 30.00 in 10.0 mi South 11.5 mph 16.1 mph N/A   Clear
4:16 AM 69.8 °F - 50.0 °F 49% 30.00 in 10.0 mi South 16.1 mph 24.2 mph N/A   Clear
4:36 AM 69.8 °F - 50.0 °F 49% 30.00 in 10.0 mi SSW 15.0 mph - N/A   Clear
4:56 AM 69.8 °F - 50.0 °F 49% 29.99 in 10.0 mi SSW 18.4 mph 21.9 mph N/A   Clear
5:16 AM 69.8 °F - 51.8 °F 53% 29.99 in 10.0 mi SSW 15.0 mph - N/A   Clear
5:36 AM 64.4 °F - 51.8 °F 64% 29.99 in 10.0 mi WSW 5.8 mph - N/A   Clear
5:56 AM 62.6 °F - 51.8 °F 68% 29.99 in 10.0 mi West 6.9 mph - N/A   Clear
6:16 AM 60.8 °F - 53.6 °F 77% 29.99 in 10.0 mi WSW 5.8 mph - N/A   Clear
6:36 AM 62.6 °F - 53.6 °F 72% 29.99 in 10.0 mi WSW 6.9 mph - N/A   Clear
6:52 AM 62.6 °F - 55.4 °F 77% 29.99 in 10.0 mi West 9.2 mph - N/A   Clear
7:50 AM 66.2 °F - 57.2 °F 73% 29.99 in 40.0 mi West 11.5 mph - N/A   Partly Cloudy
8:47 AM 73.4 °F - 55.4 °F 53% 30.00 in 40.0 mi WSW 16.1 mph - N/A   Partly Cloudy
9:50 AM 71.6 °F - 59.0 °F 64% 30.04 in 40.0 mi North 13.8 mph - N/A   Scattered Clouds
11:47 AM 80.6 °F 80.5 °F 55.4 °F 42% 30.06 in 40.0 mi WNW 4.6 mph - N/A   Partly Cloudy
1:47 PM 84.2 °F 83.5 °F 57.2 °F 40% 30.03 in 40.0 mi NE 5.8 mph - N/A   Scattered Clouds
9:16 PM 73.4 °F - 41.0 °F 31% 29.99 in 10.0 mi South 5.8 mph - N/A   Clear
9:35 PM 73.4 °F - 44.6 °F 36% 29.99 in 10.0 mi South 9.2 mph - N/A   Clear
9:56 PM 77.0 °F - 44.6 °F 32% 29.99 in 10.0 mi South 9.2 mph - N/A   Clear
10:16 PM 73.4 °F - 46.4 °F 38% 29.99 in 10.0 mi South 11.5 mph - N/A   Clear
10:35 PM 73.4 °F - 46.4 °F 38% 29.99 in 10.0 mi South 11.5 mph - N/A   Clear
10:56 PM 77.0 °F - 44.6 °F 32% 29.98 in 10.0 mi South 9.2 mph - N/A   Clear
11:16 PM 75.2 °F - 44.6 °F 34% 29.98 in 10.0 mi SSW 12.7 mph - N/A   Clear
11:36 PM 75.2 °F - 44.6 °F 34% 29.98 in 10.0 mi SSW 13.8 mph - N/A   Clear
11:56 PM 73.4 °F - 44.6 °F 36% 29.98 in 10.0 mi SSW 13.8 mph - N/A   Clear